Regional Weather Roundup
Issued by NWS

Home | Current Version | Previous Version | Graphics & Text | Print | Product List | Glossary On
Versions: 1 2 3 4 5 6 7 8 9 10 11 12 13 14 15 16 17 18 19 20 21 22 23 24 25 26 27 28 29 30 31 32 33 34 35 36 37 38 39 40 41 42 43 44 45 46 47 48 49 50
371
ASUS43 KIND 172009
RWRIN

WEATHER ROUNDUP FOR INDIANA
NATIONAL WEATHER SERVICE INDIANAPOLIS IN
300 PM EST FRI NOV 17 2017

NOTE: "FAIR" INDICATES FEW OR NO CLOUDS BELOW 12,000 FEET WITH NO
SIGNIFICANT WEATHER AND/OR OBSTRUCTIONS TO VISIBILITY.

* - STATION DOES NOT REPORT WEATHER SUCH AS PRECIPITATION OR FOG.

+ - STATION NOT QUALITY CONTROLLED BY THE NATIONAL WEATHER SERVICE.
    USE DATA WITH CAUTION...ESPECIALLY DEWPOINT AND RELATIVE
    HUMIDITY OBSERVATIONS.

INZ001>003-010>013-019-020-172100-
NORTHWEST INDIANA

CITY           SKY/WX    TMP DP  RH WIND       PRES   REMARKS
GARY /AIRPORT/ CLOUDY    46  32  57 S12G25    29.89F
KNOX *+        CLOUDY    43  32  65 SE18      29.93F
LA PORTE +     CLOUDY    44  33  66 SE15      29.91F
MICHIGAN CITY+ CLOUDY    45  32  61 S10G18    29.89F
MONTICELLO +   CLOUDY    46  31  55 S10G16    29.93F
RENSSELAER +   CLOUDY    45  30  57 SE13      29.91F
VALPARAISO     CLOUDY    46  34  62 S10       29.90F

$$

LMZ046-743>745-172100-
SOUTHERN LAKE MICHIGAN

STATION/POSITION TIME  TEMP    WIND        PRES    WAVE
                       AIR SEA DIR/SP/G            HT
                 (UTC) (F)     (DEG/KT/KT) (MB)    (FT)
BURNS HARBOR     1940   45     170/ 13/ 23 1012.5F
MICHIGAN CITY    1940   44     150/ 14/ 19   N/A

$$

INZ004-005-014>016-021>024-172100-
NORTH CENTRAL INDIANA

CITY           SKY/WX    TMP DP  RH WIND       PRES   REMARKS
ELKHART        CLOUDY    45  32  61 SE17G23   29.94F
GOSHEN         CLOUDY    44  32  62 SE17G25   29.94F
LOGANSPORT +   CLOUDY    45  34  65 S13       29.96F
PERU/GRISSOM   CLOUDY    46  35  65 S14       29.96F
ROCHESTER +    CLOUDY    46  34  61 SE10      29.96F
SOUTH BEND     CLOUDY    43  34  70 S18G28    29.94F
WARSAW +       CLOUDY    43  34  70 SE10G18   29.95F

$$

INZ006>009-017-018-025>027-172100-
NORTHEAST INDIANA

CITY           SKY/WX    TMP DP  RH WIND       PRES   REMARKS
AUBURN +       MOSUNNY   43  32  65 SE5       29.99F
FORT WAYNE     CLOUDY    46  35  65 SE13      29.99F
HUNTINGTON +   CLOUDY    45  32  61 SE8       29.98F
KENDALLVILLE + CLOUDY    42  34  72 S13       29.96F

$$

INZ028-029-035-036-043>045-051>053-172100-
WEST CENTRAL INDIANA

CITY           SKY/WX    TMP DP  RH WIND       PRES   REMARKS
CRAWFORDSVL +  CLOUDY    45  34  65 SE10      29.93F
GREENCASTLE +  MOSUNNY   46  32  57 S10       29.95F
LAFAYETTE      CLOUDY    45  34  65 S8        29.93F
TERRE HAUTE    CLOUDY    46  34  62 SE13      29.95F

$$

INZ030>032-037>040-046>048-054>057-064-065-172100-
CENTRAL INDIANA

CITY           SKY/WX    TMP DP  RH WIND       PRES   REMARKS
ANDERSON       SUNNY     48  32  53 SE12G17   29.98F
CP ATTERBURY + MOSUNNY   46  32  57 SE9       30.00F
COLUMBUS       PTSUNNY   48  28  46 S13       30.01F
FRANKFORT +    CLOUDY    48  35  60 S10G16    29.96F
GREENWOOD *+   PTSUNNY   50  35  56 S10       29.99F
INDIANAPOLIS   CLOUDY    46  33  60 SE12      29.99F
-EAGLE CREEK   PTSUNNY   47  31  53 S12       29.97F
KOKOMO +       MOSUNNY   46  34  62 S15       29.97F
MARION +       CLOUDY    46  34  63 S13       29.98F
MT COMFORT *+  CLOUDY    46  37  71 S13       29.98F
SHELBYVILLE    CLOUDY    50  32  50 S14       29.99F
ZIONSVILLE +   CLOUDY    45  32  61 S13       29.98F

$$

INZ033-034-041-042-049-050-058-059-172100-
EAST CENTRAL INDIANA

CITY           SKY/WX    TMP DP  RH WIND       PRES   REMARKS
MUNCIE         CLOUDY    48  32  53 S9        29.98F
RICHMOND +     CLOUDY    43  32  65 S14       30.01F

$$

INZ060-061-067>069-081>083-085>088-172100-
SOUTHWEST INDIANA

CITY           SKY/WX    TMP DP  RH WIND       PRES   REMARKS
EVANSVILLE     CLOUDY    46  40  79 SE9       29.99F
HUNTINGBURG +  MOSUNNY   47  37  68 SE9       30.01F
WASHINGTON +   CLOUDY    47  35  64 S10       29.99F

$$

INZ062-063-066-070>080-084-089>092-172100-
SOUTH CENTRAL AND SOUTHEAST INDIANA

CITY           SKY/WX    TMP DP  RH WIND       PRES   REMARKS
BEDFORD +      MOSUNNY   48  34  57 SE6       30.00F
BLOOMINGTON    MOSUNNY   47  32  56 S9        29.98F
MADISON *+     CLOUDY    50  32  50 SE6       30.04F
NORTH VERNON + CLOUDY    48  32  53 SE10      30.01F
SEYMOUR +      MOSUNNY   50  34  53 S12       30.02F

$$





USA.gov is the U.S. government's official web portal to all federal, state and local government web resources and services.